USTRANSCOM 7653


RJTY
Yokota AFB
Fussa, JP
PGUM
Guam International Airport
Guam, GU

Activity Log

Date Flight Route Aircraft Duration
07/19/2019 CMB853 XAC B586 UNZ B752 3h 39m

Route Details

Aircraft Information
Primary: Boeing 757-200SF
Backup: Not Available
Route Data
Distance: 1364nm
Sched. Duration: 3h 29m
Avg. Duration: 3h 39m (+9m)
Times Flown: 1
Recm'd Route: XAC B586 UNZ
Planned Altitude: 35,000ft
Origin Wx: RJTY 251356Z AUTO 30004KT 10SM CLR 11/08 A3002 RMK AO2 SLP169 T01140079 FZRANO $
Dest. Wx: PGUM 251404Z 15010G18KT 10SM BKN019 BKN060 26/23 A2984 RMK AO2 T02610233
Notes: USTRANSCOM CONTRACT FLIGHT

Financial History
Total Freight: 57,843lbs
Average Load: 57,843lbs/flt
Fuel Used: 28,557lbs
Avg. Fuel Used: 28,557lbs/flt
Fuel Expense: $29,985
Avg. Fuel Expense: $29,985
Avg. Fuel Cost: $1.05/lbs
Total Gross Income: $240,627
Pilot Pay: $149
Total Expenses: $26,040
Total Revenue: $183,767
Average Revenue: $240,626.88